Timeline UpdatesTrip UpdatesNews PostsPvt PostsTravel TipsAdmin PostsConv PostsFollowed PostsChat RequestsBlog PostsPNR Posts

Disclaimer
Search
 
 
Sun Sep 21, 2014 05:34:19 ISTHomeTrainsΣChainsAtlasPNRForumGalleryNewsFAQTripsMembersLoginFeedback
No Recent News for this Train
Other Trains in the News **new
Latest...
.
Tue Nov 19, 2013 (11:57PM)
⇐ Return Journey: Train# 56323

56324/Mangalore - Coimbatore Fast Passenger (UnReserved)

Time-Table HAS CHANGED.
Sep 03 (10:03AM)
Change Departure Station:
Change Arrival Station:
Post a Train Travel TipPost a Train Travel Tip **new
Post a Comment/Question/Picture/VideoPost a Comment/Question/Picture/Video
Pantry/Catering
???
RSA - Rake Sharing
RSA; with 56319/56320 Nagercoil Coimbatore Fast Passenger; Srivatsa Udupa
Rake/Coach Composition
LOCO=SLR=UR=UR=UR=UR=UR=UR=UR=UR=UR=UR=UR=UR=UR=UR=SLR
Loco
ED WDM 3D/3A or TNP/GOC WDM2
News    PNR    Forum    Time-Table    Availability    Fare Chart    Map    Arr/Dep History    Trips    Gallery    ΣChains    X/O    Timeline    
Travel Time: 1h 21m    8 halts    Distance: 67 km    Avg Speed: 49 km/hr
Type: Passenger
Zone: SR/Southern
Departs @ 08:07
Platform# ???
SMTWTFS
Manjeshwar/MJS 
Arrives @ 09:28
Platform# ???
SMTWTFS
Charvattur/CHV 

8 halts. 8 intermediate Stations between Manjeshwar and Charvattur

Show ALL intermediate Stations  Show Old Time-Table

#CodeStation NameX/OArrivesAvgDepartsAvgHaltPFDay#KmSpeedElevZoneAddress
1MAQMangalore Central (4)  -08:00 07:40-31-16.82314mSRMangalore 575001, Karnataka
2ULLUllal (2)  08:19 07:57-08:20 07:58-1m--1-10.37726mSRSomeshwar, Karnataka
3MJSManjeshwar (3)»  08:28 08:06-08:29 08:07-1m--10.05912mSRManjeshwar, Kerala
4UAAUppala (2)X  08:36 08:14-08:37 08:15-1m--16.95916mSRKasaragod District, Kerala
5KMQKumbala (2)X  08:47 08:25-08:48 08:26-1m--116.77323mSRKumbla, Kerala
6KGQKasaragod (3)X  08:58 08:36-09:00 08:38-2m--128.92518mSRTel: 04994 220800, Kerala
7KLADKalanad Halt  09:06 08:45-09:07 08:46-1m--131.8663mSRKasaragod, Kerala
8KQKKottikkulam (2)X  09:13 08:52-09:14 08:53-1m--138.44225mSRBekal, Kerala
9BFRBekal Fort (2)  09:21 09:00-09:22 09:01-1m--143.210511mSRPallikere, Kerala
10KZEKanhangad (3)X  09:29 09:06-09:31 09:08-2m--152.05115mSRKanhangad, Kerala
11NLENileshwar (2)  09:42 09:19-09:43 09:20-1m--161.34012mSRNileswaram, Kerala
12CHVCharvattur (3)•  09:51 09:28-09:52 09:29-1m--166.56414mSRKasaragod district, Kerala
13TKQTrikkarippur  10:00 09:37-10:01 09:38-1m--175.15313mSRKasargod district, Kerala
14PAYPayyanur (3)  10:08 09:45-10:09 09:47-1 2m--181.3210mSRKannur District, Kerala
15ELMEzhimala  10:17 09:55-10:18 09:56-1m--184.17615mSRKannur District, Kerala
16PAZPayangadi (2)X  10:25 10:03-10:26 10:04-1m2192.95012mSRKannur District, Kerala
17KPQKannapuram (2)  10:35 10:13-10:36 10:14-1m21100.51209mSRKannur District, Kerala
18PPNSPappinisseri (2)  10:39 10:17-10:40 10:18-1m--1106.5198mSRKannur District, Kerala
19VAPMValapattanam (2)  10:45 10:23-10:46 10:24-1m--1108.0258mSRKannur District, Kerala
20CQLChirakkal (2)X  10:51 10:29-10:52 10:30-1m--1110.1827mSRKannur district, Kerala
21CANKannur Main (4)  11:20 11:05-11:25 11:10-5m31114.97314mSRKannur Tel: 0497 2705555, Kerala
22TLYThalassery (2)  11:45 11:27-11:46 11:29-1 2m--1135.6699mSRKannur, Kerala
23MAHEMahe (2)X  11:57 11:37-11:58 11:39-1 2m--1144.92816mSRMahe, Puducherry
24MUKEMukkali  12:03 11:47-12:04 11:48-1m--1148.64418mSRChombala, Kerala
25NAUNadapuram Road  12:09 11:53-12:10 11:54-1m--1152.310918mSRMadappallly, Kerala
26BDJVadakara (2)  12:15 11:57-12:16 11:59-1 2m11157.78311mSRCalicut / Station Ph No : 0496-2524254, Kerala
27PYOLPayyoli (2)  12:22 12:06-12:23 12:07-1m--1167.45212mSRPayyoli, Kerala
28QLDKoyilandy (3)  12:38 12:21-12:39 12:22-1m--1179.73811mSRQuilandi, Kerala
29CLTKozhikode Main (4)X  13:15 13:00-13:20 13:05-5m31204.02211mSRCalicut Tel: 0495 2701234, Kerala
30KULKallayi Kozhikode South (2)X  13:25 13:10-13:26 13:11-1m--1205.8490mSRCalicut, Kerala
31FKFerok (2)  13:34 13:21-13:35 13:22-1m--1213.94019mSRFeroke, Kerala
32KNKadalundi (2)  13:40 13:29-13:41 13:30-1m--1218.7668mSRKozhikode district, Kerala
33VLIVallikunnu (2)  13:45 13:35-13:46 13:36-1m--1224.23713mSRVallikkunnu, Kerala
34PGIParappangadi (2)  13:54 13:44-13:55 13:45-1m--1229.15419mSRParappanangadi, Kerala
35TATanur (3)XO  14:04 13:54-14:05 13:55-1m--1237.21511mSRMalappuram, Kerala
36TIRTirur (3)X  14:18 14:28-14:20 14:30-2m31245.2579mSRTel: 0494 2422240, Kerala
37TUATirunnavaya (2)X  14:29 14:39-14:30 14:40-1m--1253.84810mSRThirunavaya, Kerala
38KTUKuttippuram (2)  14:39 14:48-14:40 14:50-1 2m--1260.36217mSRKuttippuram, Kerala
39PUMPallippuram  14:49 14:59-14:50 15:00-1m--1269.6615mSRPalakkad, Kerala
40PTBPattambi (2)XO  14:59 15:09-15:00 15:10-1m--1278.81321mSRPattambi, Kerala
41SRRShoranur Junction (7)X  16:00 16:05-16:15-15 10m51290.32926mSRShoranur ph.no 0466-2222913, Kerala
42MNURMannanur (2)  16:27-16:28-1m--1296.15333mSRVaniamkulam Mannanur Rd, Kerala
43OTPOttappalam (2)  16:37 16:36-16:38-1 2m--1303.13530mSROttapalam, Kerala
44PLPMPalappuram  16:44-16:45-1m--1306.74042mSRKayarampara-Meetna Rd, Kerala
45LDYLakkidi (2)X  16:51-16:52-1m--1310.75835mSRPalakkad, Kerala
46MNYMankara (2)  17:00-17:01-1m--1318.55665mSRPalakkad, Kerala
47PLLParli (2)  17:09-17:10-1m--1325.92263mSRPalakkad, Kerala
48PGTPalakkad Junction (4)XO  17:35-18:00-25m31334.94784mSRPalghat Tel: 0491 2555231, Kerala
49KJKDKanjikode (2)X  18:17-18:18-1m--1348.1460mSRPalakkad, Kerala
50WRAWalayarX  18:34-18:35-1m--1360.533213mSRPalakkad, Kerala
51ETMDEttimadai (2)  18:51-18:52-1m--1369.245313mSREttimadai, Tamil Nadu
52MDKIMadukaraiX  18:59-19:00-1m--1374.533344mSRCoimbatore, Tamil Nadu
53PTJPodanur Junction (4)  19:18-19:20-2m11384.323400mSRPodanur jtn ph.no. 0422-2410784, Tamil Nadu
54CBECoimbatore Main Junction (6)  19:35----1390.2-416mSRCoimbatore 641001, Tamil Nadu
Scroll to Top
Scroll to Bottom